TimeEST,TemperatureF,Dew PointF,Humidity,Sea Level PressureIn,VisibilityMPH,Wind Direction,Wind SpeedMPH,Gust SpeedMPH,PrecipitationIn,Events,Conditions,WindDirDegrees,DateUTC
12:15 AM,57.2,46.4,67,30.31,10.0,NE,10.4,-,N/A,,Clear,50,2013-11-05 05:15:00
12:35 AM,57.2,46.4,67,30.31,10.0,NE,9.2,-,N/A,,Clear,40,2013-11-05 05:35:00
12:55 AM,57.2,46.4,67,30.31,10.0,NE,10.4,-,N/A,,Unknown,50,2013-11-05 05:55:00
1:15 AM,57.2,46.4,67,30.31,10.0,NE,8.1,-,N/A,,Unknown,50,2013-11-05 06:15:00
1:35 AM,55.4,46.4,72,30.31,10.0,NE,8.1,-,N/A,,Unknown,40,2013-11-05 06:35:00
1:55 AM,55.4,46.4,72,30.30,10.0,NNE,10.4,-,N/A,,Unknown,30,2013-11-05 06:55:00
2:15 AM,55.4,46.4,72,30.31,10.0,NE,8.1,-,N/A,,Unknown,50,2013-11-05 07:15:00
2:35 AM,55.4,46.4,72,30.30,10.0,NE,9.2,-,N/A,,Unknown,40,2013-11-05 07:35:00
2:55 AM,55.4,48.2,77,30.30,10.0,NE,9.2,-,N/A,,Unknown,50,2013-11-05 07:55:00
3:15 AM,55.4,48.2,77,30.30,10.0,NNE,6.9,-,N/A,,Unknown,30,2013-11-05 08:15:00
3:35 AM,55.4,48.2,77,30.30,10.0,NNE,9.2,-,N/A,,Unknown,30,2013-11-05 08:35:00
3:55 AM,57.2,48.2,72,30.31,10.0,NE,9.2,-,N/A,,Unknown,50,2013-11-05 08:55:00
4:15 AM,57.2,48.2,72,30.30,10.0,NE,5.8,-,N/A,,Unknown,40,2013-11-05 09:15:00
4:35 AM,57.2,48.2,72,30.30,10.0,NE,6.9,-,N/A,,Unknown,50,2013-11-05 09:35:00
4:55 AM,55.4,48.2,77,30.31,10.0,NE,8.1,-,N/A,,Unknown,50,2013-11-05 09:55:00
5:15 AM,55.4,48.2,77,30.31,10.0,NE,8.1,-,N/A,,Unknown,40,2013-11-05 10:15:00
5:35 AM,55.4,48.2,77,30.31,10.0,NE,9.2,-,N/A,,Unknown,40,2013-11-05 10:35:00
5:55 AM,55.4,48.2,77,30.32,10.0,NE,9.2,-,N/A,,Unknown,40,2013-11-05 10:55:00
6:15 AM,55.4,48.2,77,30.33,10.0,NE,6.9,-,N/A,,Unknown,40,2013-11-05 11:15:00
6:35 AM,55.4,48.2,77,30.33,10.0,NE,9.2,-,N/A,,Unknown,50,2013-11-05 11:35:00
6:55 AM,57.2,48.2,72,30.33,10.0,NE,8.1,-,N/A,,Unknown,40,2013-11-05 11:55:00
7:15 AM,57.2,48.2,72,30.33,10.0,NE,9.2,-,N/A,,Overcast,50,2013-11-05 12:15:00
7:35 AM,55.4,48.2,77,30.34,10.0,NE,6.9,-,N/A,,Mostly Cloudy,50,2013-11-05 12:35:00
7:55 AM,55.4,48.2,77,30.35,10.0,NE,8.1,-,N/A,,Mostly Cloudy,40,2013-11-05 12:55:00
8:15 AM,57.2,48.2,72,30.35,10.0,NNE,11.5,-,N/A,,Overcast,30,2013-11-05 13:15:00
8:35 AM,57.2,46.4,67,30.35,10.0,NNE,12.7,-,N/A,,Mostly Cloudy,30,2013-11-05 13:35:00
8:55 AM,57.2,46.4,67,30.36,10.0,NE,8.1,-,N/A,,Mostly Cloudy,50,2013-11-05 13:55:00
9:15 AM,57.2,46.4,67,30.36,10.0,NE,9.2,-,N/A,,Overcast,40,2013-11-05 14:15:00
9:35 AM,57.2,46.4,67,30.36,10.0,NNE,11.5,-,N/A,,Overcast,30,2013-11-05 14:35:00
9:55 AM,59.0,46.4,63,30.36,10.0,NE,10.4,-,N/A,,Mostly Cloudy,40,2013-11-05 14:55:00
10:15 AM,62.6,48.2,59,30.36,10.0,NNE,10.4,-,N/A,,Mostly Cloudy,30,2013-11-05 15:15:00
10:35 AM,62.6,48.2,59,30.36,10.0,NNE,8.1,17.3,N/A,,Overcast,30,2013-11-05 15:35:00
10:55 AM,62.6,50.0,63,30.35,10.0,NE,10.4,-,N/A,,Overcast,40,2013-11-05 15:55:00
11:15 AM,64.4,51.8,64,30.35,10.0,NNE,10.4,-,N/A,,Mostly Cloudy,20,2013-11-05 16:15:00
11:35 AM,66.2,51.8,60,30.34,10.0,ENE,12.7,-,N/A,,Mostly Cloudy,60,2013-11-05 16:35:00
11:55 AM,66.2,51.8,60,30.33,10.0,NNE,10.4,18.4,N/A,,Mostly Cloudy,30,2013-11-05 16:55:00
12:15 PM,68.0,53.6,60,30.32,10.0,NNE,10.4,-,N/A,,Mostly Cloudy,30,2013-11-05 17:15:00
12:35 PM,69.8,53.6,56,30.30,10.0,NE,13.8,-,N/A,,Overcast,40,2013-11-05 17:35:00
12:55 PM,69.8,51.8,53,30.30,10.0,NE,11.5,20.7,N/A,,Mostly Cloudy,50,2013-11-05 17:55:00
1:15 PM,71.6,53.6,53,30.29,10.0,NE,11.5,18.4,N/A,,Mostly Cloudy,50,2013-11-05 18:15:00
1:35 PM,71.6,55.4,57,30.28,10.0,ENE,15.0,20.7,N/A,,Overcast,70,2013-11-05 18:35:00
1:55 PM,73.4,55.4,53,30.27,10.0,NE,13.8,19.6,N/A,,Overcast,40,2013-11-05 18:55:00
2:15 PM,73.4,53.6,50,30.27,10.0,East,15.0,24.2,N/A,,Mostly Cloudy,80,2013-11-05 19:15:00
2:35 PM,73.4,53.6,50,30.26,10.0,NE,13.8,-,N/A,,Overcast,50,2013-11-05 19:35:00
2:55 PM,73.4,53.6,50,30.26,10.0,East,13.8,17.3,N/A,,Overcast,80,2013-11-05 19:55:00
3:15 PM,71.6,55.4,57,30.26,10.0,ENE,16.1,23.0,N/A,,Overcast,70,2013-11-05 20:15:00
3:35 PM,71.6,55.4,57,30.26,10.0,NE,13.8,17.3,N/A,,Overcast,50,2013-11-05 20:35:00
3:55 PM,71.6,55.4,57,30.26,10.0,ENE,12.7,19.6,N/A,,Overcast,60,2013-11-05 20:55:00
4:15 PM,69.8,57.2,64,30.27,10.0,ENE,16.1,26.5,N/A,,Overcast,60,2013-11-05 21:15:00
4:35 PM,69.8,57.2,64,30.26,10.0,ENE,10.4,20.7,N/A,,Overcast,60,2013-11-05 21:35:00
4:55 PM,69.8,55.4,60,30.26,10.0,ENE,9.2,17.3,N/A,,Overcast,60,2013-11-05 21:55:00
5:15 PM,68.0,55.4,64,30.26,10.0,NE,9.2,-,N/A,,Mostly Cloudy,50,2013-11-05 22:15:00
5:35 PM,66.2,55.4,68,30.26,10.0,NE,9.2,-,N/A,,Scattered Clouds,50,2013-11-05 22:35:00
5:55 PM,66.2,55.4,68,30.26,10.0,ENE,5.8,-,N/A,,Mostly Cloudy,60,2013-11-05 22:55:00
6:15 PM,66.2,57.2,73,30.26,10.0,NE,8.1,-,N/A,,Overcast,50,2013-11-05 23:15:00
6:35 PM,66.2,57.2,73,30.27,10.0,ENE,9.2,17.3,N/A,,Overcast,60,2013-11-05 23:35:00
6:55 PM,68.0,57.2,68,30.27,10.0,ENE,10.4,17.3,N/A,,Overcast,60,2013-11-05 23:55:00
7:15 PM,66.2,57.2,73,30.27,10.0,ENE,8.1,-,N/A,,Overcast,60,2013-11-06 00:15:00
7:35 PM,66.2,59.0,78,30.27,10.0,ENE,12.7,-,N/A,,Overcast,70,2013-11-06 00:35:00
7:55 PM,66.2,60.8,83,30.27,10.0,NE,8.1,16.1,N/A,,Overcast,50,2013-11-06 00:55:00
8:15 PM,64.4,60.8,88,30.28,5.0,NE,10.4,-,N/A,,Overcast,50,2013-11-06 01:15:00
8:35 PM,62.6,62.6,100,30.27,7.0,NE,8.1,-,N/A,,Overcast,50,2013-11-06 01:35:00
8:55 PM,62.6,62.6,100,30.27,10.0,NE,9.2,-,N/A,,Overcast,50,2013-11-06 01:55:00
9:15 PM,62.6,62.6,100,30.28,10.0,NE,8.1,-,N/A,,Overcast,50,2013-11-06 02:15:00
9:35 PM,62.6,62.6,100,30.28,10.0,ENE,6.9,-,N/A,,Overcast,60,2013-11-06 02:35:00
9:55 PM,64.4,62.6,94,30.27,10.0,ENE,8.1,-,N/A,,Overcast,60,2013-11-06 02:55:00
10:15 PM,64.4,62.6,94,30.27,10.0,ENE,6.9,-,N/A,,Overcast,60,2013-11-06 03:15:00
10:35 PM,64.4,62.6,94,30.27,10.0,ENE,8.1,11.5,N/A,,Overcast,60,2013-11-06 03:35:00
10:55 PM,64.4,62.6,94,30.26,10.0,ENE,11.5,-,N/A,,Overcast,70,2013-11-06 03:55:00
11:15 PM,64.4,62.6,94,30.26,10.0,ENE,9.2,-,N/A,,Overcast,60,2013-11-06 04:15:00
11:35 PM,64.4,62.6,94,30.26,10.0,ENE,9.2,-,N/A,,Overcast,60,2013-11-06 04:35:00
11:55 PM,64.4,62.6,94,30.26,10.0,ENE,9.2,16.1,N/A,,Overcast,70,2013-11-06 04:55:00